This is the latest recevied weather packets stored in our database for station/object DG4DAZ-6. If no packets are shown the sender has not sent any weather packets the latest 10 day(s).
| Time | Temp. | Humidity | Pressure | Rain* | Wind** | Luminosity | Snow |
|---|---|---|---|---|---|---|---|
| 1777724484 | 23.89° C | 42% | 1017 hPa | 0 mm | - | 684 W/m² | - |
| 1777723884 | 23.89° C | 44% | 1017.1 hPa | 0 mm | - | 732 W/m² | - |
| 1777723283 | 23.33° C | 46% | 1017.2 hPa | 0 mm | - | 748 W/m² | - |
| 1777722683 | 23.33° C | 43% | 1017.3 hPa | 0 mm | - | 796 W/m² | - |
| 1777722084 | 23.33° C | 46% | 1017.4 hPa | 0 mm | - | 829 W/m² | - |
| 1777721484 | 22.78° C | 47% | 1017.5 hPa | 0 mm | - | 771 W/m² | - |
| 1777720883 | 22.22° C | 50% | 1017.7 hPa | 0 mm | - | 597 W/m² | - |
| 1777720282 | 21.67° C | 50% | 1017.9 hPa | 0 mm | - | 672 W/m² | - |
| 1777719683 | 21.67° C | 50% | 1017.9 hPa | 0 mm | - | 509 W/m² | - |
| 1777719083 | 21.67° C | 48% | 1017.9 hPa | 0 mm | - | 346 W/m² | - |
| 1777718484 | 21.67° C | 50% | 1018.2 hPa | 0 mm | - | 440 W/m² | - |
| 1777717884 | 21.67° C | 50% | 1018.2 hPa | 0 mm | - | 610 W/m² | - |
| 1777717283 | 21.67° C | 49% | 1018.3 hPa | 0 mm | - | 592 W/m² | - |
| 1777716684 | 21.67° C | 48% | 1018.5 hPa | 0 mm | - | 620 W/m² | - |
| 1777716083 | 21.67° C | 46% | 1018.6 hPa | 0 mm | - | 581 W/m² | - |
| 1777715483 | 21.67° C | 44% | 1018.5 hPa | 0 mm | - | 581 W/m² | - |
| 1777714882 | 21.11° C | 47% | 1018.5 hPa | 0 mm | - | 543 W/m² | - |
| 1777714284 | 20.56° C | 49% | 1018.5 hPa | 0 mm | - | 572 W/m² | - |
| 1777713683 | 20.56° C | 45% | 1018.6 hPa | 0 mm | - | 549 W/m² | - |
| 1777713083 | 20° C | 45% | 1018.7 hPa | 0 mm | - | 374 W/m² | - |
| 1777712482 | 20° C | 44% | 1018.8 hPa | 0 mm | - | 461 W/m² | - |
| 1777711884 | 20° C | 42% | 1018.8 hPa | 0 mm | - | 422 W/m² | - |
| 1777711283 | 20.56° C | 46% | 1018.9 hPa | 0 mm | - | 584 W/m² | - |
| 1777710683 | 20° C | 40% | 1018.9 hPa | 0 mm | - | 644 W/m² | - |
| 1777710082 | 20° C | 41% | 1019 hPa | 0 mm | - | 449 W/m² | - |
* Rain latest hour (hover to see other rain measurements)
** Current wind speed in m/s (hover to see current wind gust speed)